Regional Weather Roundup
Issued by NWS Wakefield, VA

Home | Current Version | Previous Version | Graphics & Text | Print | Product List | Glossary On
Versions: 1 2 3 4 5 6 7 8 9 10 11 12 13 14 15 16 17 18 19 20 21 22 23 24 25 26 27 28 29 30 31 32 33 34 35 36 37 38 39 40 41 42 43 44 45 46 47 48 49 50
000
ASUS41 KAKQ 191314
RWRAKQ

REGIONAL WEATHER ROUNDUP
NATIONAL WEATHER SERVICE WAKEFIELD VA
800 AM EST SUN FEB 19 2017

Note: "fair" indicates few or no clouds below 12,000 feet with no
significant weather and/or obstructions to visibility. * = Denotes
station may not report precipitation (e.g., rain,snow,etc.),
thunder or fog.

VAZ042-051-052>054-056-191400-
NORTHERN VIRGINIA

CITY           SKY/WX    TMP DP  RH WIND       PRES   REMARKS
WASH NATIONAL  CLOUDY    60  46  59 NW10      29.88R
DULLES         PTSUNNY   57  44  62 NW15      29.88R
FORT BELVOIR   PTSUNNY   58  46  65 NW9       29.88R
QUANTICO       CLOUDY    49  45  86 CALM      29.90R
FREDERICKSBRG* PTSUNNY   51  42  71 CALM      29.88R
STAFFORD*      CLOUDY    51  49  93 CALM      29.93R
WARRENTON      CLOUDY    59  45  58 NW6       29.89R
CULPEPER*      CLOUDY    58  50  73 CALM      29.91R
MANASSAS*      CLOUDY    52  48  86 CALM      29.90R
LEESBURG*      CLOUDY    57  46  67 NW13      29.90R
WINCHESTER     CLOUDY    54  43  66 W7        29.92R
FRONT ROYAL*   CLOUDY    50  50 100 CALM      29.91R
LURAY*         CLOUDY    48  48 100 CALM      29.92R
$$

VAZ048-049-060>072-079>083-191400-
CENTRAL AND SOUTH CENTRAL VIRGINIA

CITY           SKY/WX    TMP DP  RH WIND       PRES   REMARKS
RICHMOND       MOSUNNY   50  42  74 CALM      29.88R
CHESTERFIELD*  FAIR      52  30  43 NW5       29.90R
PETERSBURG*    SUNNY     50  41  72 CALM      29.88S
HANOVER        SUNNY     49  39  68 CALM      29.90R
TAPPAHANNOCK*  SUNNY     53  27  36 CALM      29.89R
QUINTON*       FAIR      49  43  81 CALM      29.88R
CHARLOTTSVILLE SUNNY     56  42  59 CALM      29.90R
GORDONSVILLE*  CLOUDY    49  41  74 CALM      29.90R
ORANGE*        CLOUDY    50  41  71 CALM      29.91R
LOUISA*        MOSUNNY   52  43  71 CALM      29.89R
BUMPASS*       FAIR      45  37  75 CALM      29.88R
FARMVILLE*     SUNNY     46  42  86 CALM      29.89R
CREWE*         FAIR      53  38  58 W5        29.89R
FORT PICKETT*  FAIR      50  35  56 W7        29.89R
CHASE CITY*    FAIR      49  38  64 W5        29.91R
CLARKSVILLE*   FAIR      50  37  62 CALM      29.91R
SOUTH HILL*    SUNNY     49  41  74 W6        29.95S
LAWRENCEVILLE* FAIR      49  41  73 W6        29.88R
EMPORIA*       SUNNY     50  43  76 W5        29.89S
$$

VAZ088>098-191400-
SOUTHEAST VIRGINIA

CITY           SKY/WX    TMP DP  RH WIND       PRES   REMARKS
NORFOLK        SUNNY     56  44  64 VRB5      29.86R
VIRGINIA BEACH MOSUNNY   55  44  66 W7        29.86R
NORFOLK NAVAL  MOSUNNY   55  44  66 W6        29.88R
WEST POINT*    CLOUDY    52  43  72 CALM      29.89R
SALUDA*        FAIR      55  44  67 CALM      29.88R
NEWPORT NEWS   SUNNY     54  44  69 W6        29.87R
LANGLEY AFB    SUNNY     55  44  68 W6        29.86R
FORT EUSTIS    SUNNY     52  44  74 W5        29.85R
WILLIAMSBURG*  SUNNY     52  45  76 CALM      29.88S
HR EXEC AP*    FAIR      52  45  76 W3        29.86R
FRANKLIN*      SUNNY     49  43  79 CALM      29.89R
US460-WAKEFLD  SUNNY     49  44  83 CALM      29.88R
$$

VAZ020-022-025-037-045-191400-
WEST CENTRAL AND SOUTHWEST VIRGINIA

CITY           SKY/WX    TMP DP  RH WIND       PRES   REMARKS
STAUNTON*      SUNNY     42  39  90 CALM      29.95R
WAYNESBORO*    SUNNY     50  39  65 W3        29.94R
HOT SPRINGS VA CLOUDY    41  41 100 W22       29.95R
LYNCHBURG      SUNNY     50  38  63 NW3       29.94R
DANVILLE       SUNNY     44  40  85 SW3       29.94R
SOUTH BOSTON*  FAIR      48  39  72 CALM      29.92R
MARTINSVILLE   SUNNY     41  37  87 N3        29.98R
ROANOKE        MOCLDY    54  41  61 NW9       29.99R
BLACKSBURG     CLOUDY    48  42  79 W8G18     30.03R
DUBLIN*        CLOUDY    49  43  78 NW12      30.02R
MARION*        CLOUDY    47  43  85 W14G23    30.05R
HILLSVILLE*    CLOUDY    46  43  90 W12       29.99R
RICHLANDS*     CLOUDY    43  43 100 W5        30.05R FOG
WISE*          CLOUDY    45  45 100 CALM      30.07R
ABINGDON*      CLOUDY    47  47 100 W5        30.06R FOG
$$

MDZ021>025-VAZ099-100-191400-
SOUTHERN MARYLAND AND THE DELMARVA PENINSULA

CITY           SKY/WX    TMP DP  RH WIND       PRES   REMARKS
PATUXENT RIVER PTSUNNY   57  41  55 NW6       29.86R
BAY BRIDGE APT CLOUDY    54  41  62 W6        29.86R
LEONARDTOWN    CLOUDY    59  37  44 NW3       29.88R
DOVER          CLOUDY    56  40  56 SW5       29.84R
GEORGETOWN     CLOUDY    56  37  49 W5        29.85R
EASTON         NOT AVBL
CAMBRIDGE      CLOUDY    54  41  62 CALM      29.86R
SALISBURY      MOSUNNY   52  41  66 SW3       29.85R
OCEAN CITY     PTSUNNY   59  38  45 W5        29.85R
WALLOPS ISLAND MOSUNNY   56  41  57 W9        29.86R
ACCOMACK*      SUNNY     55  42  62 W6        29.86R
$$

NCZ012>017-030>032-191400-
NORTH CENTRAL AND EASTERN NORTH CAROLINA

CITY           SKY/WX    TMP DP  RH WIND       PRES   REMARKS
ROANOKE RAPIDS FAIR      46  43  87 CALM      29.90R
RALEIGH        MOSUNNY   48  43  82 CALM      29.93R
ELIZABETH CITY SUNNY     53  44  71 SW9       29.90R
AHOSKIE*         N/A     48  44  86 CALM      29.90R
EDENTON*       SUNNY     55  45  69 SW5       29.91R
CURRITUCK*     SUNNY     53  42  67 SW7       29.89R
KILL DEVIL HLS NOT AVBL
MANTEO         SUNNY     51  47  86 SW8       29.90R
CAPE HATTERAS  SUNNY     57  47  69 W6        29.90F HAZE
TARBORO*       NOT AVBL
GOLDSBORO      SUNNY     51  49  93 W6        29.91R
WASHINGTON     SUNNY     52  44  73 W5        29.91R
GREENVILLE     SUNNY     54  46  76 W3        29.94R
NEW BERN       SUNNY     52  46  80 SW5       29.93R
WILMINGTON     MOSUNNY   52  47  83 SW5       29.95R
$$

VAZ048-191400-
ELSEWHERE

CITY           SKY/WX    TMP DP  RH WIND       PRES   REMARKS
HARRISBURG PA  CLOUDY    51  40  65 NW7       29.86R
BALTIMORE      CLOUDY    57  43  59 W6        29.86R
ANNAPOLIS      CLOUDY    58  41  53 NW6       29.86R
ANDREWS AFB    CLOUDY    58  44  61 NW9       29.87R
PHILADELPHIA   CLOUDY    59  36  42 W13       29.84R
HENDERSON NC   SUNNY     48  37  63 W3        29.91S
GREENSBORO     MOSUNNY   50  44  80 W6        29.95R
ROCKY MOUNT    SUNNY     51  45  79 W5        29.91R
$$

VAZ100-191400-
MARINE

STATION/POSITION TIME  TEMP    WIND        PRES    WAVE   SWELL
                       AIR SEA DIR/SP/G            HT/PER HT/PER
                 (UTC) (F)     (DEG/KT/KT) (MB)    (FT/S) (FT/S)
CAPE MAY NJ      1242   50 40  300/  5/  6 1010.1R
LEWES DE         1248   56 40  290/  6/  6 1010.3R
OCEAN-CITY-INLET 1248   57 42  310/  6/  9 1010.9R
WACHAPREAGUE VA  1248   57 47  270/  3/  5 1010.8R
THOMAS POINT MD  1200   56 39  280/  6/  7   N/A
GOOSES REEF MD   1300   50 40  320/  6/  6 1012.0
COVE POINT MD    1248   59     340/ 10/ 11 1011.6R
SOLOMONS ISLAND  1248   55 43  300/  1/  3   N/A
BISHOPS HEAD MD  1248   44 41  260/  4/  5 1011.3R
PINEY POINT MD   1248          240/  2/  3   N/A
POTOMAC MD       1300   49 43  270/  6/  6 1010.5    0
CAMBRIDGE MD     1248   50 40  320/  5/  5 1010.3R
LEWISETTA VA     1248   51 43  200/  1/  2 1011.2R
RAPPAHANNOCK LGT 1248          250/ 12/ 12 1011.5R
YORK RVR RNG VA  1248   53     300/  7/  7 1010.6R
YORKTOWN VA      1248   54 45  280/  6/  7 1011.0R
JAMESTOWN VA     1300   51 47  310/  2/  4   N/A     0
DOMINION TERM VA 1236   52     310/  9/  9 1011.2R
KIPTOPEKE VA     1248      45  330/  6/  7   N/A
CHES BAY BRIDGE  1236   53 45  280/  9/  9 1010.8R
CAPE HENRY VA    1236   56     260/  8/ 11   N/A
WILLOUBY STN VA  1236   54     280/  9/ 10 1012.1R
S CRANEY ISL VA  1236   54     240/  3/  7 1010.8R
CAPE HENRY BUOY  1242      46                N/A     2/ 7
OFFSHORE WE BUOY 1251      46                N/A     3/ 6
64NM E OF VA BCH 1150   53 51  220/ 12/ 12 1010.3    4/ 7   3/ 7
DUCK PIER NC     1236   54 47  220/ 11/ 12 1011.6R
44100 DUCK FRF   1205      47                N/A     2/ 6
44056 DUCK FRF   1300      47                N/A     1/ 8
OREGON INLET NC  1248          190/  7/  8   N/A
HATTERAS NC      1236   57 56  240/  4/  6 1012.3F
DIAMOND SHLS NC  1150   63 68  280/ 10/ 12 1013.3    3/ 4   2/ 5
CAPE LOOKOUT NC  1200   56     240/  6/  7 1013.0R
$$



USA.gov is the U.S. government's official web portal to all federal, state and local government web resources and services.